Data supplied by UK-AIR on 5/4/2008
All Data GMT hour ending 
Status: R =Ratified P=Provisional,P*=As supplied
,,Stoke-on-Trent Centre,,,,,,,,,,,,,,,,,,,,,,,
Date,time,"Carbon monoxide",status,unit,"PM10 particulate matter (Hourly measured)",status,unit,"Nitric oxide",status,unit,"Nitrogen dioxide",status,unit,"Nitrogen oxides as nitrogen dioxide",status,unit,"Ozone",status,unit,"Sulphur dioxide",status,unit
 
01-01-2002,01:00,2.9,R,mgm-3,85,R,ugm-3 (GRAV EQ),,,,,,,,,,14,R,ugm-3,16,R,ugm-3
01-01-2002,02:00,3.2,R,mgm-3,107,R,ugm-3 (GRAV EQ),,,,,,,,,,16,R,ugm-3,29,R,ugm-3
01-01-2002,03:00,3.5,R,mgm-3,95,R,ugm-3 (GRAV EQ),,,,,,,,,,16,R,ugm-3,24,R,ugm-3
01-01-2002,04:00,3.6,R,mgm-3,96,R,ugm-3 (GRAV EQ),,,,,,,,,,16,R,ugm-3,19,R,ugm-3
01-01-2002,05:00,1.3,R,mgm-3,40,R,ugm-3 (GRAV EQ),,,,,,,,,,10,R,ugm-3,16,R,ugm-3
01-01-2002,06:00,1.0,R,mgm-3,38,R,ugm-3 (GRAV EQ),,,,,,,,,,16,R,ugm-3,5,R,ugm-3
01-01-2002,07:00,0.9,R,mgm-3,26,R,ugm-3 (GRAV EQ),,,,,,,,,,14,R,ugm-3,8,R,ugm-3
01-01-2002,08:00,1.2,R,mgm-3,39,R,ugm-3 (GRAV EQ),,,,,,,,,,16,R,ugm-3,8,R,ugm-3
01-01-2002,09:00,0.5,R,mgm-3,16,R,ugm-3 (GRAV EQ),,,,,,,,,,18,R,ugm-3,8,R,ugm-3
01-01-2002,10:00,0.9,R,mgm-3,30,R,ugm-3 (GRAV EQ),,,,,,,,,,20,R,ugm-3,11,R,ugm-3
01-01-2002,11:00,1.5,R,mgm-3,52,R,ugm-3 (GRAV EQ),,,,,,,,,,20,R,ugm-3,13,R,ugm-3
01-01-2002,12:00,0.8,R,mgm-3,40,R,ugm-3 (GRAV EQ),,,,,,,,,,28,R,ugm-3,11,R,ugm-3
01-01-2002,13:00,0.7,R,mgm-3,33,R,ugm-3 (GRAV EQ),,,,,,,,,,34,R,ugm-3,5,R,ugm-3
01-01-2002,14:00,0.7,R,mgm-3,18,R,ugm-3 (GRAV EQ),,,,,,,,,,40,R,ugm-3,8,R,ugm-3
01-01-2002,15:00,0.6,R,mgm-3,14,R,ugm-3 (GRAV EQ),,,,,,,,,,40,R,ugm-3,13,R,ugm-3
01-01-2002,16:00,0.6,R,mgm-3,8,R,ugm-3 (GRAV EQ),,,,,,,,,,32,R,ugm-3,5,R,ugm-3
01-01-2002,17:00,0.9,R,mgm-3,20,R,ugm-3 (GRAV EQ),,,,,,,,,,18,R,ugm-3,13,R,ugm-3
01-01-2002,18:00,0.8,R,mgm-3,33,R,ugm-3 (GRAV EQ),,,,,,,,,,16,R,ugm-3,13,R,ugm-3
01-01-2002,19:00,0.7,R,mgm-3,38,R,ugm-3 (GRAV EQ),,,,,,,,,,12,R,ugm-3,8,R,ugm-3
01-01-2002,20:00,0.8,R,mgm-3,38,R,ugm-3 (GRAV EQ),,,,,,,,,,10,R,ugm-3,16,R,ugm-3
01-01-2002,21:00,0.8,R,mgm-3,35,R,ugm-3 (GRAV EQ),,,,,,,,,,14,R,ugm-3,13,R,ugm-3
01-01-2002,22:00,0.7,R,mgm-3,30,R,ugm-3 (GRAV EQ),,,,,,,,,,14,R,ugm-3,13,R,ugm-3
01-01-2002,23:00,0.6,R,mgm-3,27,R,ugm-3 (GRAV EQ),,,,,,,,,,12,R,ugm-3,8,R,ugm-3
01-01-2002,24:00,0.6,R,mgm-3,23,R,ugm-3 (GRAV EQ),,,,,,,,,,12,R,ugm-3,11,R,ugm-3
02-01-2002,01:00,0.5,R,mgm-3,22,R,ugm-3 (GRAV EQ),,,,,,,,,,8,R,ugm-3,13,R,ugm-3
02-01-2002,02:00,0.3,R,mgm-3,21,R,ugm-3 (GRAV EQ),,,,,,,,,,18,R,ugm-3,19,R,ugm-3
02-01-2002,03:00,0.3,R,mgm-3,16,R,ugm-3 (GRAV EQ),,,,,,,,,,18,R,ugm-3,19,R,ugm-3
02-01-2002,04:00,0.3,R,mgm-3,17,R,ugm-3 (GRAV EQ),,,,,,,,,,16,R,ugm-3,11,R,ugm-3
02-01-2002,05:00,0.3,R,mgm-3,14,R,ugm-3 (GRAV EQ),,,,,,,,,,20,R,ugm-3,16,R,ugm-3
02-01-2002,06:00,0.3,R,mgm-3,16,R,ugm-3 (GRAV EQ),,,,,,,,,,24,R,ugm-3,16,R,ugm-3
02-01-2002,07:00,0.3,R,mgm-3,17,R,ugm-3 (GRAV EQ),,,,,,,,,,18,R,ugm-3,13,R,ugm-3
02-01-2002,08:00,0.5,R,mgm-3,17,R,ugm-3 (GRAV EQ),,,,,,,,,,18,R,ugm-3,19,R,ugm-3
02-01-2002,09:00,0.6,R,mgm-3,21,R,ugm-3 (GRAV EQ),,,,,,,,,,12,R,ugm-3,29,R,ugm-3
02-01-2002,10:00,0.6,R,mgm-3,22,R,ugm-3 (GRAV EQ),,,,,,,,,,16,R,ugm-3,29,R,ugm-3
02-01-2002,11:00,0.7,R,mgm-3,17,R,ugm-3 (GRAV EQ),,,,,,,,,,20,R,ugm-3,24,R,ugm-3
02-01-2002,12:00,0.7,R,mgm-3,,,,,,,,,,,,,16,R,ugm-3,53,R,ugm-3
02-01-2002,13:00,,,,,,,,,,,,,,,,36,R,ugm-3,74,R,ugm-3
02-01-2002,14:00,0.6,R,mgm-3,8,R,ugm-3 (GRAV EQ),31,R,ugm-3,44,R,ugm-3,92,R,ugm-3,28,R,ugm-3,,,
02-01-2002,15:00,0.8,R,mgm-3,10,R,ugm-3 (GRAV EQ),39,R,ugm-3,48,R,ugm-3,107,R,ugm-3,,,,43,R,ugm-3
02-01-2002,16:00,0.7,R,mgm-3,14,R,ugm-3 (GRAV EQ),41,R,ugm-3,53,R,ugm-3,117,R,ugm-3,16,R,ugm-3,37,R,ugm-3
02-01-2002,17:00,0.7,R,mgm-3,16,R,ugm-3 (GRAV EQ),30,R,ugm-3,53,R,ugm-3,99,R,ugm-3,10,R,ugm-3,35,R,ugm-3
02-01-2002,18:00,0.8,R,mgm-3,17,R,ugm-3 (GRAV EQ),30,R,ugm-3,52,R,ugm-3,97,R,ugm-3,6,R,ugm-3,19,R,ugm-3
02-01-2002,19:00,0.5,R,mgm-3,20,R,ugm-3 (GRAV EQ),16,R,ugm-3,52,R,ugm-3,76,R,ugm-3,8,R,ugm-3,21,R,ugm-3
02-01-2002,20:00,0.3,R,mgm-3,14,R,ugm-3 (GRAV EQ),9,R,ugm-3,46,R,ugm-3,59,R,ugm-3,18,R,ugm-3,21,R,ugm-3
02-01-2002,21:00,0.3,R,mgm-3,16,R,ugm-3 (GRAV EQ),5,R,ugm-3,42,R,ugm-3,50,R,ugm-3,24,R,ugm-3,27,R,ugm-3
02-01-2002,22:00,0.3,R,mgm-3,17,R,ugm-3 (GRAV EQ),4,R,ugm-3,36,R,ugm-3,42,R,ugm-3,34,R,ugm-3,21,R,ugm-3
02-01-2002,23:00,0.2,R,mgm-3,18,R,ugm-3 (GRAV EQ),4,R,ugm-3,29,R,ugm-3,34,R,ugm-3,40,R,ugm-3,13,R,ugm-3
02-01-2002,24:00,0.2,R,mgm-3,18,R,ugm-3 (GRAV EQ),4,R,ugm-3,31,R,ugm-3,36,R,ugm-3,38,R,ugm-3,11,R,ugm-3
03-01-2002,01:00,0.1,R,mgm-3,18,R,ugm-3 (GRAV EQ),1,R,ugm-3,32,R,ugm-3,34,R,ugm-3,38,R,ugm-3,11,R,ugm-3
03-01-2002,02:00,0.1,R,mgm-3,23,R,ugm-3 (GRAV EQ),1,R,ugm-3,38,R,ugm-3,40,R,ugm-3,30,R,ugm-3,13,R,ugm-3
03-01-2002,03:00,0.2,R,mgm-3,22,R,ugm-3 (GRAV EQ),3,R,ugm-3,40,R,ugm-3,44,R,ugm-3,26,R,ugm-3,5,R,ugm-3
03-01-2002,04:00,0.1,R,mgm-3,21,R,ugm-3 (GRAV EQ),1,R,ugm-3,34,R,ugm-3,36,R,ugm-3,36,R,ugm-3,13,R,ugm-3
03-01-2002,05:00,0.1,R,mgm-3,17,R,ugm-3 (GRAV EQ),0,R,ugm-3,34,R,ugm-3,34,R,ugm-3,32,R,ugm-3,11,R,ugm-3
03-01-2002,06:00,0.1,R,mgm-3,17,R,ugm-3 (GRAV EQ),3,R,ugm-3,32,R,ugm-3,36,R,ugm-3,36,R,ugm-3,19,R,ugm-3
03-01-2002,07:00,0.1,R,mgm-3,17,R,ugm-3 (GRAV EQ),4,R,ugm-3,38,R,ugm-3,44,R,ugm-3,34,R,ugm-3,21,R,ugm-3
03-01-2002,08:00,0.3,R,mgm-3,16,R,ugm-3 (GRAV EQ),9,R,ugm-3,42,R,ugm-3,55,R,ugm-3,26,R,ugm-3,19,R,ugm-3
03-01-2002,09:00,0.5,R,mgm-3,16,R,ugm-3 (GRAV EQ),11,R,ugm-3,48,R,ugm-3,65,R,ugm-3,22,R,ugm-3,11,R,ugm-3
03-01-2002,10:00,0.3,R,mgm-3,21,R,ugm-3 (GRAV EQ),18,R,ugm-3,46,R,ugm-3,73,R,ugm-3,26,R,ugm-3,13,R,ugm-3
03-01-2002,11:00,0.5,R,mgm-3,21,R,ugm-3 (GRAV EQ),23,R,ugm-3,40,R,ugm-3,74,R,ugm-3,30,R,ugm-3,11,R,ugm-3
03-01-2002,12:00,0.6,R,mgm-3,20,R,ugm-3 (GRAV EQ),23,R,ugm-3,40,R,ugm-3,74,R,ugm-3,34,R,ugm-3,19,R,ugm-3
03-01-2002,13:00,0.6,R,mgm-3,18,R,ugm-3 (GRAV EQ),25,R,ugm-3,40,R,ugm-3,78,R,ugm-3,32,R,ugm-3,21,R,ugm-3
03-01-2002,14:00,0.7,R,mgm-3,17,R,ugm-3 (GRAV EQ),26,R,ugm-3,40,R,ugm-3,80,R,ugm-3,30,R,ugm-3,11,R,ugm-3
03-01-2002,15:00,0.5,R,mgm-3,18,R,ugm-3 (GRAV EQ),21,R,ugm-3,42,R,ugm-3,74,R,ugm-3,32,R,ugm-3,13,R,ugm-3
03-01-2002,16:00,0.5,R,mgm-3,18,R,ugm-3 (GRAV EQ),19,R,ugm-3,42,R,ugm-3,71,R,ugm-3,26,R,ugm-3,16,R,ugm-3
03-01-2002,17:00,0.6,R,mgm-3,21,R,ugm-3 (GRAV EQ),18,R,ugm-3,46,R,ugm-3,73,R,ugm-3,16,R,ugm-3,19,R,ugm-3
03-01-2002,18:00,0.7,R,mgm-3,20,R,ugm-3 (GRAV EQ),18,R,ugm-3,48,R,ugm-3,74,R,ugm-3,12,R,ugm-3,16,R,ugm-3
03-01-2002,19:00,0.3,R,mgm-3,21,R,ugm-3 (GRAV EQ),13,R,ugm-3,50,R,ugm-3,69,R,ugm-3,8,R,ugm-3,16,R,ugm-3
03-01-2002,20:00,0.3,R,mgm-3,23,R,ugm-3 (GRAV EQ),11,R,ugm-3,50,R,ugm-3,67,R,ugm-3,8,R,ugm-3,19,R,ugm-3
03-01-2002,21:00,0.5,R,mgm-3,22,R,ugm-3 (GRAV EQ),6,R,ugm-3,42,R,ugm-3,52,R,ugm-3,14,R,ugm-3,11,R,ugm-3
03-01-2002,22:00,0.3,R,mgm-3,21,R,ugm-3 (GRAV EQ),5,R,ugm-3,42,R,ugm-3,50,R,ugm-3,12,R,ugm-3,13,R,ugm-3
03-01-2002,23:00,0.3,R,mgm-3,22,R,ugm-3 (GRAV EQ),8,R,ugm-3,50,R,ugm-3,61,R,ugm-3,8,R,ugm-3,21,R,ugm-3
03-01-2002,24:00,0.3,R,mgm-3,22,R,ugm-3 (GRAV EQ),8,R,ugm-3,52,R,ugm-3,63,R,ugm-3,10,R,ugm-3,24,R,ugm-3
04-01-2002,01:00,0.3,R,mgm-3,25,R,ugm-3 (GRAV EQ),8,R,ugm-3,50,R,ugm-3,61,R,ugm-3,4,R,ugm-3,29,R,ugm-3
04-01-2002,02:00,0.3,R,mgm-3,23,R,ugm-3 (GRAV EQ),5,R,ugm-3,52,R,ugm-3,59,R,ugm-3,12,R,ugm-3,37,R,ugm-3
04-01-2002,03:00,0.3,R,mgm-3,21,R,ugm-3 (GRAV EQ),3,R,ugm-3,50,R,ugm-3,53,R,ugm-3,8,R,ugm-3,37,R,ugm-3
04-01-2002,04:00,0.2,R,mgm-3,23,R,ugm-3 (GRAV EQ),6,R,ugm-3,48,R,ugm-3,57,R,ugm-3,8,R,ugm-3,37,R,ugm-3
04-01-2002,05:00,0.2,R,mgm-3,23,R,ugm-3 (GRAV EQ),8,R,ugm-3,50,R,ugm-3,61,R,ugm-3,6,R,ugm-3,37,R,ugm-3
04-01-2002,06:00,0.3,R,mgm-3,22,R,ugm-3 (GRAV EQ),9,R,ugm-3,52,R,ugm-3,65,R,ugm-3,2,R,ugm-3,19,R,ugm-3
04-01-2002,07:00,0.3,R,mgm-3,22,R,ugm-3 (GRAV EQ),15,R,ugm-3,50,R,ugm-3,73,R,ugm-3,2,R,ugm-3,19,R,ugm-3
04-01-2002,08:00,0.5,R,mgm-3,29,R,ugm-3 (GRAV EQ),29,R,ugm-3,52,R,ugm-3,96,R,ugm-3,6,R,ugm-3,24,R,ugm-3
04-01-2002,09:00,0.6,R,mgm-3,30,R,ugm-3 (GRAV EQ),40,R,ugm-3,55,R,ugm-3,117,R,ugm-3,10,R,ugm-3,21,R,ugm-3
04-01-2002,10:00,0.6,R,mgm-3,34,R,ugm-3 (GRAV EQ),65,R,ugm-3,57,R,ugm-3,157,R,ugm-3,12,R,ugm-3,27,R,ugm-3
04-01-2002,11:00,0.6,R,mgm-3,29,R,ugm-3 (GRAV EQ),63,R,ugm-3,55,R,ugm-3,151,R,ugm-3,12,R,ugm-3,80,R,ugm-3
04-01-2002,12:00,0.7,R,mgm-3,35,R,ugm-3 (GRAV EQ),65,R,ugm-3,57,R,ugm-3,157,R,ugm-3,8,R,ugm-3,69,R,ugm-3
04-01-2002,13:00,0.9,R,mgm-3,38,R,ugm-3 (GRAV EQ),60,R,ugm-3,57,R,ugm-3,149,R,ugm-3,16,R,ugm-3,27,R,ugm-3
04-01-2002,14:00,0.9,R,mgm-3,43,R,ugm-3 (GRAV EQ),69,R,ugm-3,61,R,ugm-3,166,R,ugm-3,10,R,ugm-3,40,R,ugm-3
04-01-2002,15:00,0.9,R,mgm-3,42,R,ugm-3 (GRAV EQ),75,R,ugm-3,61,R,ugm-3,176,R,ugm-3,12,R,ugm-3,80,R,ugm-3
04-01-2002,16:00,0.9,R,mgm-3,43,R,ugm-3 (GRAV EQ),76,R,ugm-3,63,R,ugm-3,180,R,ugm-3,12,R,ugm-3,67,R,ugm-3
04-01-2002,17:00,1.0,R,mgm-3,47,R,ugm-3 (GRAV EQ),90,R,ugm-3,65,R,ugm-3,202,R,ugm-3,8,R,ugm-3,32,R,ugm-3
04-01-2002,18:00,1.2,R,mgm-3,46,R,ugm-3 (GRAV EQ),78,R,ugm-3,61,R,ugm-3,180,R,ugm-3,6,R,ugm-3,24,R,ugm-3
04-01-2002,19:00,0.9,R,mgm-3,52,R,ugm-3 (GRAV EQ),58,R,ugm-3,55,R,ugm-3,143,R,ugm-3,8,R,ugm-3,19,R,ugm-3
04-01-2002,20:00,0.7,R,mgm-3,52,R,ugm-3 (GRAV EQ),55,R,ugm-3,53,R,ugm-3,138,R,ugm-3,4,R,ugm-3,16,R,ugm-3
04-01-2002,21:00,0.6,R,mgm-3,39,R,ugm-3 (GRAV EQ),46,R,ugm-3,48,R,ugm-3,118,R,ugm-3,6,R,ugm-3,19,R,ugm-3
04-01-2002,22:00,0.6,R,mgm-3,43,R,ugm-3 (GRAV EQ),43,R,ugm-3,50,R,ugm-3,115,R,ugm-3,4,R,ugm-3,24,R,ugm-3
04-01-2002,23:00,0.6,R,mgm-3,46,R,ugm-3 (GRAV EQ),45,R,ugm-3,48,R,ugm-3,117,R,ugm-3,6,R,ugm-3,19,R,ugm-3
04-01-2002,24:00,0.7,R,mgm-3,38,R,ugm-3 (GRAV EQ),43,R,ugm-3,48,R,ugm-3,113,R,ugm-3,8,R,ugm-3,19,R,ugm-3
05-01-2002,01:00,0.8,R,mgm-3,43,R,ugm-3 (GRAV EQ),46,R,ugm-3,52,R,ugm-3,122,R,ugm-3,14,R,ugm-3,8,R,ugm-3
05-01-2002,02:00,0.8,R,mgm-3,48,R,ugm-3 (GRAV EQ),49,R,ugm-3,50,R,ugm-3,124,R,ugm-3,10,R,ugm-3,8,R,ugm-3
05-01-2002,03:00,0.9,R,mgm-3,42,R,ugm-3 (GRAV EQ),54,R,ugm-3,46,R,ugm-3,128,R,ugm-3,8,R,ugm-3,5,R,ugm-3
05-01-2002,04:00,0.7,R,mgm-3,27,R,ugm-3 (GRAV EQ),45,R,ugm-3,42,R,ugm-3,111,R,ugm-3,10,R,ugm-3,8,R,ugm-3
05-01-2002,05:00,0.6,R,mgm-3,20,R,ugm-3 (GRAV EQ),33,R,ugm-3,38,R,ugm-3,88,R,ugm-3,10,R,ugm-3,5,R,ugm-3
05-01-2002,06:00,0.6,R,mgm-3,21,R,ugm-3 (GRAV EQ),31,R,ugm-3,38,R,ugm-3,86,R,ugm-3,6,R,ugm-3,3,R,ugm-3
05-01-2002,07:00,0.6,R,mgm-3,21,R,ugm-3 (GRAV EQ),43,R,ugm-3,38,R,ugm-3,103,R,ugm-3,14,R,ugm-3,5,R,ugm-3
05-01-2002,08:00,0.5,R,mgm-3,17,R,ugm-3 (GRAV EQ),45,R,ugm-3,38,R,ugm-3,107,R,ugm-3,10,R,ugm-3,3,R,ugm-3
05-01-2002,09:00,0.8,R,mgm-3,21,R,ugm-3 (GRAV EQ),61,R,ugm-3,38,R,ugm-3,132,R,ugm-3,12,R,ugm-3,13,R,ugm-3
05-01-2002,10:00,1.0,R,mgm-3,23,R,ugm-3 (GRAV EQ),73,R,ugm-3,38,R,ugm-3,149,R,ugm-3,12,R,ugm-3,16,R,ugm-3
05-01-2002,11:00,1.0,R,mgm-3,22,R,ugm-3 (GRAV EQ),59,R,ugm-3,40,R,ugm-3,130,R,ugm-3,16,R,ugm-3,11,R,ugm-3
05-01-2002,12:00,1.2,R,mgm-3,20,R,ugm-3 (GRAV EQ),71,R,ugm-3,44,R,ugm-3,153,R,ugm-3,12,R,ugm-3,11,R,ugm-3
05-01-2002,13:00,1.5,R,mgm-3,23,R,ugm-3 (GRAV EQ),93,R,ugm-3,40,R,ugm-3,181,R,ugm-3,14,R,ugm-3,13,R,ugm-3
05-01-2002,14:00,1.4,R,mgm-3,23,R,ugm-3 (GRAV EQ),78,R,ugm-3,42,R,ugm-3,160,R,ugm-3,12,R,ugm-3,13,R,ugm-3
05-01-2002,15:00,1.0,R,mgm-3,23,R,ugm-3 (GRAV EQ),66,R,ugm-3,40,R,ugm-3,141,R,ugm-3,14,R,ugm-3,13,R,ugm-3
05-01-2002,16:00,1.6,R,mgm-3,29,R,ugm-3 (GRAV EQ),100,R,ugm-3,44,R,ugm-3,197,R,ugm-3,12,R,ugm-3,19,R,ugm-3
05-01-2002,17:00,2.0,R,mgm-3,30,R,ugm-3 (GRAV EQ),119,R,ugm-3,42,R,ugm-3,223,R,ugm-3,14,R,ugm-3,16,R,ugm-3
05-01-2002,18:00,4.8,R,mgm-3,46,R,ugm-3 (GRAV EQ),331,R,ugm-3,46,R,ugm-3,552,R,ugm-3,16,R,ugm-3,21,R,ugm-3
05-01-2002,19:00,4.6,R,mgm-3,46,R,ugm-3 (GRAV EQ),270,R,ugm-3,48,R,ugm-3,460,R,ugm-3,12,R,ugm-3,24,R,ugm-3
05-01-2002,20:00,3.6,R,mgm-3,40,R,ugm-3 (GRAV EQ),264,R,ugm-3,46,R,ugm-3,449,R,ugm-3,14,R,ugm-3,21,R,ugm-3
05-01-2002,21:00,3.7,R,mgm-3,51,R,ugm-3 (GRAV EQ),246,R,ugm-3,52,R,ugm-3,428,R,ugm-3,12,R,ugm-3,32,R,ugm-3
05-01-2002,22:00,2.2,R,mgm-3,38,R,ugm-3 (GRAV EQ),145,R,ugm-3,52,R,ugm-3,273,R,ugm-3,14,R,ugm-3,40,R,ugm-3
05-01-2002,23:00,0.9,R,mgm-3,17,R,ugm-3 (GRAV EQ),61,R,ugm-3,50,R,ugm-3,143,R,ugm-3,14,R,ugm-3,40,R,ugm-3
05-01-2002,24:00,1.0,R,mgm-3,14,R,ugm-3 (GRAV EQ),56,R,ugm-3,53,R,ugm-3,139,R,ugm-3,14,R,ugm-3,40,R,ugm-3
06-01-2002,01:00,0.8,R,mgm-3,9,R,ugm-3 (GRAV EQ),35,R,ugm-3,50,R,ugm-3,103,R,ugm-3,10,R,ugm-3,37,R,ugm-3
06-01-2002,02:00,1.0,R,mgm-3,9,R,ugm-3 (GRAV EQ),63,R,ugm-3,48,R,ugm-3,143,R,ugm-3,12,R,ugm-3,19,R,ugm-3
06-01-2002,03:00,0.5,R,mgm-3,5,R,ugm-3 (GRAV EQ),14,R,ugm-3,31,R,ugm-3,52,R,ugm-3,30,R,ugm-3,21,R,ugm-3
06-01-2002,04:00,0.3,R,mgm-3,0,R,ugm-3 (GRAV EQ),6,R,ugm-3,23,R,ugm-3,32,R,ugm-3,38,R,ugm-3,21,R,ugm-3
06-01-2002,05:00,0.1,R,mgm-3,-1,R,ugm-3 (GRAV EQ),0,R,ugm-3,23,R,ugm-3,23,R,ugm-3,38,R,ugm-3,19,R,ugm-3
06-01-2002,06:00,0.1,R,mgm-3,4,R,ugm-3 (GRAV EQ),1,R,ugm-3,29,R,ugm-3,31,R,ugm-3,24,R,ugm-3,16,R,ugm-3
06-01-2002,07:00,0.1,R,mgm-3,4,R,ugm-3 (GRAV EQ),3,R,ugm-3,27,R,ugm-3,31,R,ugm-3,26,R,ugm-3,16,R,ugm-3
06-01-2002,08:00,0.2,R,mgm-3,4,R,ugm-3 (GRAV EQ),5,R,ugm-3,32,R,ugm-3,40,R,ugm-3,18,R,ugm-3,11,R,ugm-3
06-01-2002,09:00,0.2,R,mgm-3,5,R,ugm-3 (GRAV EQ),11,R,ugm-3,32,R,ugm-3,50,R,ugm-3,10,R,ugm-3,13,R,ugm-3
06-01-2002,10:00,0.6,R,mgm-3,12,R,ugm-3 (GRAV EQ),24,R,ugm-3,36,R,ugm-3,73,R,ugm-3,10,R,ugm-3,13,R,ugm-3
06-01-2002,11:00,0.8,R,mgm-3,18,R,ugm-3 (GRAV EQ),34,R,ugm-3,36,R,ugm-3,88,R,ugm-3,8,R,ugm-3,13,R,ugm-3
06-01-2002,12:00,0.9,R,mgm-3,20,R,ugm-3 (GRAV EQ),45,R,ugm-3,38,R,ugm-3,107,R,ugm-3,8,R,ugm-3,13,R,ugm-3
06-01-2002,13:00,1.0,R,mgm-3,23,R,ugm-3 (GRAV EQ),51,R,ugm-3,40,R,ugm-3,118,R,ugm-3,8,R,ugm-3,19,R,ugm-3
06-01-2002,14:00,1.2,R,mgm-3,26,R,ugm-3 (GRAV EQ),63,R,ugm-3,38,R,ugm-3,134,R,ugm-3,6,R,ugm-3,21,R,ugm-3
06-01-2002,15:00,1.0,R,mgm-3,23,R,ugm-3 (GRAV EQ),54,R,ugm-3,38,R,ugm-3,120,R,ugm-3,8,R,ugm-3,16,R,ugm-3
06-01-2002,16:00,1.2,R,mgm-3,31,R,ugm-3 (GRAV EQ),59,R,ugm-3,38,R,ugm-3,128,R,ugm-3,6,R,ugm-3,19,R,ugm-3
06-01-2002,17:00,1.4,R,mgm-3,31,R,ugm-3 (GRAV EQ),69,R,ugm-3,36,R,ugm-3,141,R,ugm-3,2,R,ugm-3,19,R,ugm-3
06-01-2002,18:00,0.9,R,mgm-3,30,R,ugm-3 (GRAV EQ),48,R,ugm-3,36,R,ugm-3,109,R,ugm-3,6,R,ugm-3,19,R,ugm-3
06-01-2002,19:00,0.6,R,mgm-3,31,R,ugm-3 (GRAV EQ),39,R,ugm-3,38,R,ugm-3,97,R,ugm-3,6,R,ugm-3,13,R,ugm-3
06-01-2002,20:00,0.6,R,mgm-3,30,R,ugm-3 (GRAV EQ),33,R,ugm-3,34,R,ugm-3,84,R,ugm-3,6,R,ugm-3,16,R,ugm-3
06-01-2002,21:00,0.6,R,mgm-3,33,R,ugm-3 (GRAV EQ),29,R,ugm-3,32,R,ugm-3,76,R,ugm-3,2,R,ugm-3,16,R,ugm-3
06-01-2002,22:00,0.5,R,mgm-3,31,R,ugm-3 (GRAV EQ),21,R,ugm-3,34,R,ugm-3,67,R,ugm-3,8,R,ugm-3,16,R,ugm-3
06-01-2002,23:00,0.6,R,mgm-3,29,R,ugm-3 (GRAV EQ),16,R,ugm-3,36,R,ugm-3,61,R,ugm-3,6,R,ugm-3,19,R,ugm-3
06-01-2002,24:00,0.5,R,mgm-3,29,R,ugm-3 (GRAV EQ),19,R,ugm-3,36,R,ugm-3,65,R,ugm-3,8,R,ugm-3,19,R,ugm-3
07-01-2002,01:00,0.5,R,mgm-3,29,R,ugm-3 (GRAV EQ),19,R,ugm-3,34,R,ugm-3,63,R,ugm-3,6,R,ugm-3,3,R,ugm-3
07-01-2002,02:00,0.3,R,mgm-3,23,R,ugm-3 (GRAV EQ),4,R,ugm-3,34,R,ugm-3,40,R,ugm-3,16,R,ugm-3,5,R,ugm-3
07-01-2002,03:00,0.1,R,mgm-3,20,R,ugm-3 (GRAV EQ),1,R,ugm-3,31,R,ugm-3,32,R,ugm-3,14,R,ugm-3,8,R,ugm-3
07-01-2002,04:00,0.1,R,mgm-3,20,R,ugm-3 (GRAV EQ),1,R,ugm-3,29,R,ugm-3,31,R,ugm-3,16,R,ugm-3,5,R,ugm-3
07-01-2002,05:00,0.1,R,mgm-3,14,R,ugm-3 (GRAV EQ),0,R,ugm-3,21,R,ugm-3,21,R,ugm-3,26,R,ugm-3,8,R,ugm-3
07-01-2002,06:00,0.1,R,mgm-3,17,R,ugm-3 (GRAV EQ),3,R,ugm-3,27,R,ugm-3,31,R,ugm-3,20,R,ugm-3,8,R,ugm-3
07-01-2002,07:00,0.3,R,mgm-3,21,R,ugm-3 (GRAV EQ),24,R,ugm-3,40,R,ugm-3,76,R,ugm-3,8,R,ugm-3,11,R,ugm-3
07-01-2002,08:00,0.3,R,mgm-3,26,R,ugm-3 (GRAV EQ),35,R,ugm-3,40,R,ugm-3,94,R,ugm-3,6,R,ugm-3,5,R,ugm-3
07-01-2002,09:00,0.5,R,mgm-3,26,R,ugm-3 (GRAV EQ),49,R,ugm-3,42,R,ugm-3,117,R,ugm-3,8,R,ugm-3,8,R,ugm-3
07-01-2002,10:00,0.7,R,mgm-3,33,R,ugm-3 (GRAV EQ),70,R,ugm-3,46,R,ugm-3,153,R,ugm-3,6,R,ugm-3,8,R,ugm-3
07-01-2002,11:00,0.8,R,mgm-3,29,R,ugm-3 (GRAV EQ),71,R,ugm-3,46,R,ugm-3,155,R,ugm-3,6,R,ugm-3,11,R,ugm-3
07-01-2002,12:00,0.9,R,mgm-3,29,R,ugm-3 (GRAV EQ),76,R,ugm-3,50,R,ugm-3,166,R,ugm-3,6,R,ugm-3,5,R,ugm-3
07-01-2002,13:00,0.9,R,mgm-3,29,R,ugm-3 (GRAV EQ),68,R,ugm-3,50,R,ugm-3,153,R,ugm-3,8,R,ugm-3,13,R,ugm-3
07-01-2002,14:00,0.8,R,mgm-3,26,R,ugm-3 (GRAV EQ),58,R,ugm-3,48,R,ugm-3,136,R,ugm-3,10,R,ugm-3,19,R,ugm-3
07-01-2002,15:00,1.0,R,mgm-3,33,R,ugm-3 (GRAV EQ),78,R,ugm-3,53,R,ugm-3,172,R,ugm-3,8,R,ugm-3,16,R,ugm-3
07-01-2002,16:00,1.0,R,mgm-3,40,R,ugm-3 (GRAV EQ),81,R,ugm-3,53,R,ugm-3,178,R,ugm-3,8,R,ugm-3,19,R,ugm-3
07-01-2002,17:00,1.0,R,mgm-3,33,R,ugm-3 (GRAV EQ),71,R,ugm-3,53,R,ugm-3,162,R,ugm-3,8,R,ugm-3,19,R,ugm-3
07-01-2002,18:00,1.6,R,mgm-3,49,R,ugm-3 (GRAV EQ),96,R,ugm-3,52,R,ugm-3,199,R,ugm-3,6,R,ugm-3,16,R,ugm-3
07-01-2002,19:00,1.0,R,mgm-3,47,R,ugm-3 (GRAV EQ),68,R,ugm-3,46,R,ugm-3,149,R,ugm-3,2,R,ugm-3,13,R,ugm-3
07-01-2002,20:00,0.8,R,mgm-3,53,R,ugm-3 (GRAV EQ),86,R,ugm-3,48,R,ugm-3,180,R,ugm-3,8,R,ugm-3,16,R,ugm-3
07-01-2002,21:00,0.9,R,mgm-3,48,R,ugm-3 (GRAV EQ),85,R,ugm-3,48,R,ugm-3,178,R,ugm-3,4,R,ugm-3,13,R,ugm-3
07-01-2002,22:00,0.8,R,mgm-3,39,R,ugm-3 (GRAV EQ),73,R,ugm-3,46,R,ugm-3,157,R,ugm-3,2,R,ugm-3,13,R,ugm-3
07-01-2002,23:00,0.7,R,mgm-3,39,R,ugm-3 (GRAV EQ),71,R,ugm-3,50,R,ugm-3,159,R,ugm-3,6,R,ugm-3,16,R,ugm-3
07-01-2002,24:00,0.8,R,mgm-3,35,R,ugm-3 (GRAV EQ),74,R,ugm-3,50,R,ugm-3,162,R,ugm-3,6,R,ugm-3,16,R,ugm-3
08-01-2002,01:00,0.6,R,mgm-3,25,R,ugm-3 (GRAV EQ),60,R,ugm-3,46,R,ugm-3,138,R,ugm-3,2,R,ugm-3,11,R,ugm-3
08-01-2002,02:00,0.6,R,mgm-3,26,R,ugm-3 (GRAV EQ),50,R,ugm-3,48,R,ugm-3,124,R,ugm-3,2,R,ugm-3,13,R,ugm-3
08-01-2002,03:00,0.5,R,mgm-3,17,R,ugm-3 (GRAV EQ),31,R,ugm-3,46,R,ugm-3,94,R,ugm-3,4,R,ugm-3,13,R,ugm-3
08-01-2002,04:00,0.3,R,mgm-3,12,R,ugm-3 (GRAV EQ),6,R,ugm-3,40,R,ugm-3,50,R,ugm-3,8,R,ugm-3,11,R,ugm-3
08-01-2002,05:00,0.1,R,mgm-3,7,R,ugm-3 (GRAV EQ),0,R,ugm-3,31,R,ugm-3,31,R,ugm-3,24,R,ugm-3,8,R,ugm-3
08-01-2002,06:00,0.2,R,mgm-3,8,R,ugm-3 (GRAV EQ),5,R,ugm-3,32,R,ugm-3,40,R,ugm-3,14,R,ugm-3,16,R,ugm-3
08-01-2002,07:00,0.5,R,mgm-3,10,R,ugm-3 (GRAV EQ),21,R,ugm-3,40,R,ugm-3,73,R,ugm-3,10,R,ugm-3,13,R,ugm-3
08-01-2002,08:00,0.7,R,mgm-3,14,R,ugm-3 (GRAV EQ),44,R,ugm-3,44,R,ugm-3,111,R,ugm-3,6,R,ugm-3,29,R,ugm-3
08-01-2002,09:00,0.9,R,mgm-3,22,R,ugm-3 (GRAV EQ),81,R,ugm-3,50,R,ugm-3,174,R,ugm-3,6,R,ugm-3,35,R,ugm-3
08-01-2002,10:00,0.9,R,mgm-3,29,R,ugm-3 (GRAV EQ),75,R,ugm-3,50,R,ugm-3,164,R,ugm-3,10,R,ugm-3,37,R,ugm-3
08-01-2002,11:00,1.0,R,mgm-3,30,R,ugm-3 (GRAV EQ),84,R,ugm-3,46,R,ugm-3,174,R,ugm-3,8,R,ugm-3,40,R,ugm-3
08-01-2002,12:00,1.0,R,mgm-3,25,R,ugm-3 (GRAV EQ),74,R,ugm-3,48,R,ugm-3,160,R,ugm-3,8,R,ugm-3,35,R,ugm-3
08-01-2002,13:00,0.7,R,mgm-3,23,R,ugm-3 (GRAV EQ),48,R,ugm-3,44,R,ugm-3,117,R,ugm-3,10,R,ugm-3,29,R,ugm-3
08-01-2002,14:00,1.0,R,mgm-3,25,R,ugm-3 (GRAV EQ),66,R,ugm-3,46,R,ugm-3,147,R,ugm-3,10,R,ugm-3,24,R,ugm-3
08-01-2002,15:00,0.9,R,mgm-3,26,R,ugm-3 (GRAV EQ),54,R,ugm-3,50,R,ugm-3,132,R,ugm-3,6,R,ugm-3,27,R,ugm-3
08-01-2002,16:00,0.7,R,mgm-3,23,R,ugm-3 (GRAV EQ),40,R,ugm-3,48,R,ugm-3,109,R,ugm-3,8,R,ugm-3,27,R,ugm-3
08-01-2002,17:00,1.0,R,mgm-3,27,R,ugm-3 (GRAV EQ),68,R,ugm-3,50,R,ugm-3,153,R,ugm-3,8,R,ugm-3,21,R,ugm-3
08-01-2002,18:00,1.2,R,mgm-3,33,R,ugm-3 (GRAV EQ),68,R,ugm-3,48,R,ugm-3,151,R,ugm-3,6,R,ugm-3,24,R,ugm-3
08-01-2002,19:00,0.8,R,mgm-3,33,R,ugm-3 (GRAV EQ),53,R,ugm-3,50,R,ugm-3,130,R,ugm-3,6,R,ugm-3,27,R,ugm-3
08-01-2002,20:00,0.5,R,mgm-3,26,R,ugm-3 (GRAV EQ),38,R,ugm-3,48,R,ugm-3,105,R,ugm-3,4,R,ugm-3,19,R,ugm-3
08-01-2002,21:00,0.3,R,mgm-3,20,R,ugm-3 (GRAV EQ),16,R,ugm-3,46,R,ugm-3,71,R,ugm-3,12,R,ugm-3,19,R,ugm-3
08-01-2002,22:00,0.2,R,mgm-3,16,R,ugm-3 (GRAV EQ),6,R,ugm-3,34,R,ugm-3,44,R,ugm-3,28,R,ugm-3,16,R,ugm-3
08-01-2002,23:00,0.2,R,mgm-3,26,R,ugm-3 (GRAV EQ),5,R,ugm-3,32,R,ugm-3,40,R,ugm-3,24,R,ugm-3,19,R,ugm-3
08-01-2002,24:00,0.1,R,mgm-3,27,R,ugm-3 (GRAV EQ),5,R,ugm-3,32,R,ugm-3,40,R,ugm-3,18,R,ugm-3,16,R,ugm-3
09-01-2002,01:00,0.1,R,mgm-3,27,R,ugm-3 (GRAV EQ),4,R,ugm-3,32,R,ugm-3,38,R,ugm-3,10,R,ugm-3,11,R,ugm-3
09-01-2002,02:00,0.1,R,mgm-3,20,R,ugm-3 (GRAV EQ),1,R,ugm-3,29,R,ugm-3,31,R,ugm-3,26,R,ugm-3,13,R,ugm-3
09-01-2002,03:00,0.1,R,mgm-3,23,R,ugm-3 (GRAV EQ),5,R,ugm-3,34,R,ugm-3,42,R,ugm-3,12,R,ugm-3,35,R,ugm-3
09-01-2002,04:00,0.1,R,mgm-3,30,R,ugm-3 (GRAV EQ),1,R,ugm-3,34,R,ugm-3,36,R,ugm-3,16,R,ugm-3,21,R,ugm-3
09-01-2002,05:00,0.2,R,mgm-3,26,R,ugm-3 (GRAV EQ),5,R,ugm-3,40,R,ugm-3,48,R,ugm-3,6,R,ugm-3,19,R,ugm-3
09-01-2002,06:00,0.3,R,mgm-3,29,R,ugm-3 (GRAV EQ),8,R,ugm-3,44,R,ugm-3,55,R,ugm-3,10,R,ugm-3,19,R,ugm-3
09-01-2002,07:00,0.3,R,mgm-3,30,R,ugm-3 (GRAV EQ),24,R,ugm-3,48,R,ugm-3,84,R,ugm-3,4,R,ugm-3,13,R,ugm-3
09-01-2002,08:00,0.6,R,mgm-3,31,R,ugm-3 (GRAV EQ),45,R,ugm-3,44,R,ugm-3,113,R,ugm-3,6,R,ugm-3,13,R,ugm-3
09-01-2002,09:00,0.7,R,mgm-3,35,R,ugm-3 (GRAV EQ),53,R,ugm-3,46,R,ugm-3,126,R,ugm-3,8,R,ugm-3,21,R,ugm-3
09-01-2002,10:00,0.6,R,mgm-3,40,R,ugm-3 (GRAV EQ),55,R,ugm-3,42,R,ugm-3,126,R,ugm-3,8,R,ugm-3,21,R,ugm-3
09-01-2002,11:00,0.7,R,mgm-3,38,R,ugm-3 (GRAV EQ),65,R,ugm-3,42,R,ugm-3,141,R,ugm-3,10,R,ugm-3,19,R,ugm-3
09-01-2002,12:00,0.8,R,mgm-3,40,R,ugm-3 (GRAV EQ),73,R,ugm-3,42,R,ugm-3,153,R,ugm-3,8,R,ugm-3,19,R,ugm-3
09-01-2002,13:00,0.7,R,mgm-3,42,R,ugm-3 (GRAV EQ),64,R,ugm-3,42,R,ugm-3,139,R,ugm-3,8,R,ugm-3,24,R,ugm-3
09-01-2002,14:00,0.8,R,mgm-3,39,R,ugm-3 (GRAV EQ),58,R,ugm-3,40,R,ugm-3,128,R,ugm-3,10,R,ugm-3,21,R,ugm-3
09-01-2002,15:00,0.9,R,mgm-3,42,R,ugm-3 (GRAV EQ),59,R,ugm-3,38,R,ugm-3,128,R,ugm-3,6,R,ugm-3,13,R,ugm-3
09-01-2002,16:00,0.9,R,mgm-3,44,R,ugm-3 (GRAV EQ),56,R,ugm-3,42,R,ugm-3,128,R,ugm-3,10,R,ugm-3,16,R,ugm-3
09-01-2002,17:00,1.2,R,mgm-3,47,R,ugm-3 (GRAV EQ),63,R,ugm-3,42,R,ugm-3,138,R,ugm-3,8,R,ugm-3,29,R,ugm-3
09-01-2002,18:00,1.0,R,mgm-3,43,R,ugm-3 (GRAV EQ),53,R,ugm-3,42,R,ugm-3,122,R,ugm-3,2,R,ugm-3,21,R,ugm-3
09-01-2002,19:00,0.8,R,mgm-3,42,R,ugm-3 (GRAV EQ),45,R,ugm-3,40,R,ugm-3,109,R,ugm-3,8,R,ugm-3,19,R,ugm-3
09-01-2002,20:00,0.6,R,mgm-3,43,R,ugm-3 (GRAV EQ),46,R,ugm-3,42,R,ugm-3,113,R,ugm-3,4,R,ugm-3,19,R,ugm-3
09-01-2002,21:00,0.7,R,mgm-3,43,R,ugm-3 (GRAV EQ),40,R,ugm-3,42,R,ugm-3,103,R,ugm-3,6,R,ugm-3,19,R,ugm-3
09-01-2002,22:00,0.7,R,mgm-3,47,R,ugm-3 (GRAV EQ),40,R,ugm-3,42,R,ugm-3,103,R,ugm-3,6,R,ugm-3,19,R,ugm-3
09-01-2002,23:00,0.6,R,mgm-3,48,R,ugm-3 (GRAV EQ),36,R,ugm-3,40,R,ugm-3,96,R,ugm-3,6,R,ugm-3,16,R,ugm-3
09-01-2002,24:00,0.6,R,mgm-3,40,R,ugm-3 (GRAV EQ),31,R,ugm-3,40,R,ugm-3,88,R,ugm-3,4,R,ugm-3,13,R,ugm-3
10-01-2002,01:00,0.5,R,mgm-3,38,R,ugm-3 (GRAV EQ),25,R,ugm-3,50,R,ugm-3,88,R,ugm-3,8,R,ugm-3,21,R,ugm-3
10-01-2002,02:00,0.6,R,mgm-3,49,R,ugm-3 (GRAV EQ),29,R,ugm-3,48,R,ugm-3,92,R,ugm-3,8,R,ugm-3,24,R,ugm-3
10-01-2002,03:00,0.6,R,mgm-3,44,R,ugm-3 (GRAV EQ),29,R,ugm-3,48,R,ugm-3,92,R,ugm-3,6,R,ugm-3,27,R,ugm-3
10-01-2002,04:00,0.6,R,mgm-3,43,R,ugm-3 (GRAV EQ),26,R,ugm-3,46,R,ugm-3,86,R,ugm-3,10,R,ugm-3,21,R,ugm-3
10-01-2002,05:00,0.5,R,mgm-3,35,R,ugm-3 (GRAV EQ),26,R,ugm-3,46,R,ugm-3,86,R,ugm-3,8,R,ugm-3,29,R,ugm-3
10-01-2002,06:00,0.7,R,mgm-3,40,R,ugm-3 (GRAV EQ),33,R,ugm-3,50,R,ugm-3,99,R,ugm-3,10,R,ugm-3,21,R,ugm-3
10-01-2002,07:00,0.8,R,mgm-3,46,R,ugm-3 (GRAV EQ),54,R,ugm-3,50,R,ugm-3,132,R,ugm-3,8,R,ugm-3,27,R,ugm-3
10-01-2002,08:00,1.0,R,mgm-3,44,R,ugm-3 (GRAV EQ),86,R,ugm-3,50,R,ugm-3,181,R,ugm-3,10,R,ugm-3,40,R,ugm-3
10-01-2002,09:00,1.3,R,mgm-3,40,R,ugm-3 (GRAV EQ),81,R,ugm-3,50,R,ugm-3,174,R,ugm-3,12,R,ugm-3,59,R,ugm-3
10-01-2002,10:00,0.9,R,mgm-3,20,R,ugm-3 (GRAV EQ),71,R,ugm-3,50,R,ugm-3,159,R,ugm-3,8,R,ugm-3,48,R,ugm-3
10-01-2002,11:00,0.8,R,mgm-3,35,R,ugm-3 (GRAV EQ),66,R,ugm-3,46,R,ugm-3,147,R,ugm-3,10,R,ugm-3,37,R,ugm-3
10-01-2002,12:00,0.8,R,mgm-3,31,R,ugm-3 (GRAV EQ),58,R,ugm-3,44,R,ugm-3,132,R,ugm-3,10,R,ugm-3,40,R,ugm-3
10-01-2002,13:00,0.8,R,mgm-3,29,R,ugm-3 (GRAV EQ),56,R,ugm-3,44,R,ugm-3,130,R,ugm-3,10,R,ugm-3,35,R,ugm-3
10-01-2002,14:00,1.0,R,mgm-3,36,R,ugm-3 (GRAV EQ),70,R,ugm-3,46,R,ugm-3,153,R,ugm-3,12,R,ugm-3,35,R,ugm-3
10-01-2002,15:00,0.9,R,mgm-3,38,R,ugm-3 (GRAV EQ),66,R,ugm-3,46,R,ugm-3,147,R,ugm-3,8,R,ugm-3,27,R,ugm-3
10-01-2002,16:00,1.2,R,mgm-3,43,R,ugm-3 (GRAV EQ),69,R,ugm-3,46,R,ugm-3,151,R,ugm-3,10,R,ugm-3,29,R,ugm-3
10-01-2002,17:00,1.2,R,mgm-3,62,R,ugm-3 (GRAV EQ),89,R,ugm-3,48,R,ugm-3,183,R,ugm-3,12,R,ugm-3,24,R,ugm-3
10-01-2002,18:00,1.4,R,mgm-3,59,R,ugm-3 (GRAV EQ),93,R,ugm-3,46,R,ugm-3,187,R,ugm-3,14,R,ugm-3,21,R,ugm-3